Weather Roundup
Issued by NWS Springfield, MO

Home | Current Version | Previous Version | Text Only | Print | Product List | Glossary On
Versions: 1 2 3 4 5 6 7 8 9 10 11 12 13 14 15 16 17 18 19 20 21 22 23 24 25 26 27 28 29 30 31 32 33 34 35 36 37 38 39 40 41 42 43 44 45 46 47 48 49 50
000
NZUS99 KSGF 012107
HRRSGF

HOURLY WEATHER
NATIONAL WEATHER SERVICE SPRINGFIELD MO
400 PM CDT FRI AUG 01 2014

......SGF CWA......

CITY           SKY/WX    TMP DP  RH WIND       PRES   REMARKS
SPRINGFIELD    SUNNY     83  57  41 MISG      30.06F
JOPLIN         MOSUNNY   85  59  41 CALM      30.06F
WEST PLAINS    MOSUNNY   80  63  55 VRB5      30.08F
ROLLA          PTSUNNY   79  60  52 NE13      30.06S
OSAGE BEACH      N/A     82  64  54 NE9       30.06S
BRANSON        MOSUNNY   84  63  48 SE7       30.09F

......SURROUNDING SGF CWA......

CITY           SKY/WX    TMP DP  RH WIND       PRES   REMARKS
CHANUTE        CLOUDY    83  63  50 SE7       30.06F
PARSONS        PTSUNNY   85  63  47 S7        30.07F
COFFEYVILLE    PTSUNNY   84  63  49 VRB3      30.05F
EMPORIA        PTSUNNY   88  60  38 S15       30.02F
GROVE OK       PTSUNNY   84  63  48 S3        30.07F
ROGERS AR      MOSUNNY   82  61  48 E6        30.09F
SILOAM SPRINGS SUNNY     82  61  47 S3        30.08F
HARRISON AR    MOSUNNY   79  64  60 NE7       30.09F
NEAR YELLVILLE MOSUNNY   81  64  57 N5        30.08S

......KANSAS AND MISSOURI......

CITY           SKY/WX    TMP DP  RH WIND       PRES   REMARKS
KANSAS CTY INT PTSUNNY   84  61  45 SE7       30.07F
DOWNTOWN KC    PTSUNNY   85  60  42 E5        30.05F
COLUMBIA       PTSUNNY   79  60  52 E5        30.08S
SEDALIA        SUNNY     84  62  47 VRB5      30.08F
ST JOSEPH      PTSUNNY   84  61  45 VRB3      30.07S
ST LOUIS       CLOUDY    76  68  76 NW8       30.07S
SPIRIT OF STL  RAIN      70  66  87 CALM      30.06S FOG
KIRKSVILLE     PTSUNNY   82  62  50 N12       30.08S
WICHITA        MOSUNNY   92  55  28 NW12      30.02F HX  90
TOPEKA         PTSUNNY   90  60  36 SE12G21   30.02F
OLATHE         PTSUNNY   82  60  47 SE6       30.06S

......TENNESSEE......

CITY           SKY/WX    TMP DP  RH WIND       PRES   REMARKS
MEMPHIS        PTSUNNY   85  63  47 E8        30.02F
NASHVILLE      PTSUNNY   86  60  41 E7        30.03F

......ARKANSAS.......

CITY           SKY/WX    TMP DP  RH WIND       PRES   REMARKS
FAYETTEVILLE   SUNNY     79  64  60 E7        30.08F
FT SMITH       CLOUDY    79  65  62 E3        30.05F
LITTLE ROCK    CLOUDY    79  65  62 NE8       30.04S

......OKLAHOMA.......

CITY           SKY/WX    TMP DP  RH WIND       PRES   REMARKS
TULSA          MOSUNNY   83  62  49 S6        30.04F
PONCA CITY     MOSUNNY   83  65  54 S7        30.05F
MCALESTER      PTSUNNY   80  65  59 VRB6      30.06F
OKLAHOMA CITY  PTSUNNY   84  62  47 S7        30.06F

......IOWA............

CITY           SKY/WX    TMP DP  RH WIND       PRES   REMARKS
DES MOINES     MOSUNNY   84  61  45 SE7       30.07F
QUAD CITIES    PTSUNNY   81  61  50 SE3       30.05F

......ILLINOIS........

CITY           SKY/WX    TMP DP  RH WIND       PRES   REMARKS
QUINCY         LGT RAIN  77  65  66 N3        30.06F
CHICAGO        PTSUNNY   78  57  48 SE7       30.07S




USA.gov is the U.S. government's official web portal to all federal, state and local government web resources and services.